User: anonymous   Login
Location: Podia
(1.5569°N, 32.3469°E)
Time: 11:59:23
(UTC+00:00)
Language:

ARIANE 5 DEB (SYLDA) - Orbit

View from above orbital plane
View from above orbital plane
View from above satellite
View from above satellite

Ground track
Ground track

The orbit data is extracted from the following two-line orbital elements,

1 29164U 06020C   20226.45107739  .00011208  00000-0  10161-2 0  9991
2 29164   6.7891 159.3810 4728237 161.2629 224.6961  6.12160990235792
Epoch (UTC): 13 August 2020 10:49:33
Eccentricity: 0.4728237
inclination: 6.7891°
perigee height: 276 km
apogee height: 12213 km
right ascension of ascending node: 159.3810°
argument of perigee: 161.2629°
revolutions per day: 6.12160990
mean anomaly at epoch: 224.6961°
orbit number at epoch: 23579

The dashed part of the orbit path shows where the satellite is in the earth's shadow,  

DLR